| time (UTC) | temp F | wind direction | speed MPH | gust MPH | rain 1hr in | rain 24hr in | rain mn in | humidity % | barometer mb |
| 20260505085603 | 52 | 92 | 6.0 | 6.0 | 0.00 | 0.00 | 0.00 | 70 | 1010.9 |
| 20260505085103 | 52 | 92 | 5.0 | 7.0 | 0.00 | 0.00 | 0.00 | 71 | 1010.9 |
| 20260505084603 | 51 | 92 | 6.0 | 7.0 | 0.00 | 0.00 | 0.00 | 73 | 1011.1 |
| 20260505084104 | 51 | 92 | 3.0 | 5.0 | 0.00 | 0.00 | 0.00 | 71 | 1011.1 |
| 20260505083603 | 53 | 90 | 7.0 | 10.0 | 0.00 | 0.00 | 0.00 | 69 | 1011.0 |
| 20260505083103 | 53 | 90 | 9.0 | 10.0 | 0.00 | 0.00 | 0.00 | 70 | 1011.0 |
| 20260505082603 | 51 | 93 | 7.0 | 9.0 | 0.00 | 0.00 | 0.00 | 72 | 1011.1 |
| 20260505082103 | 51 | 101 | 6.0 | 7.0 | 0.00 | 0.00 | 0.00 | 73 | 1011.2 |
| 20260505081603 | 51 | 101 | 6.0 | 7.0 | 0.00 | 0.00 | 0.00 | 73 | 1010.9 |
| 20260505080603 | 51 | 105 | 5.0 | 5.0 | 0.00 | 0.00 | 0.00 | 75 | 1011.1 |
| 20260505080103 | 52 | 105 | 3.0 | 5.0 | 0.00 | 0.00 | 0.00 | 74 | 1010.8 |
| 20260505075603 | 52 | 105 | 5.0 | 5.0 | 0.00 | 0.00 | 0.00 | 73 | 1010.8 |
| 20260505075103 | 53 | 105 | 5.0 | 6.0 | 0.00 | 0.00 | 0.00 | 72 | 1010.8 |
| 20260505074103 | 53 | 96 | 7.0 | 8.0 | 0.00 | 0.00 | 0.00 | 70 | 1010.8 |
| 20260505073603 | 53 | 96 | 7.0 | 8.0 | 0.00 | 0.00 | 0.00 | 70 | 1010.8 |
| 20260505073103 | 53 | 96 | 8.0 | 9.0 | 0.00 | 0.00 | 0.00 | 70 | 1010.9 |
| 20260505072603 | 54 | 96 | 7.0 | 9.0 | 0.00 | 0.00 | 0.00 | 69 | 1010.6 |
| 20260505071603 | 55 | 92 | 9.0 | 10.0 | 0.00 | 0.00 | 0.00 | 68 | 1010.6 |
| 20260505071104 | 55 | 92 | 8.0 | 10.0 | 0.00 | 0.00 | 0.00 | 66 | 1010.8 |
| 20260505070603 | 56 | 92 | 7.0 | 9.0 | 0.00 | 0.00 | 0.00 | 66 | 1010.8 |
| 20260505065603 | 55 | 101 | 7.0 | 9.0 | 0.00 | 0.00 | 0.00 | 68 | 1010.9 |
| 20260505065104 | 55 | 100 | 7.0 | 10.0 | 0.00 | 0.00 | 0.00 | 68 | 1010.7 |
| 20260505064603 | 55 | 100 | 6.0 | 8.0 | 0.00 | 0.00 | 0.00 | 70 | 1010.8 |
| 20260505064103 | 55 | 101 | 5.0 | 6.0 | 0.00 | 0.00 | 0.00 | 70 | 1010.7 |
| 20260505062603 | 55 | 104 | 6.0 | 7.0 | 0.00 | 0.00 | 0.00 | 70 | 1010.6 |
| 20260505061603 | 54 | 109 | 6.0 | 8.0 | 0.00 | 0.00 | 0.00 | 73 | 1010.6 |
| 20260505061103 | 54 | 106 | 7.0 | 9.0 | 0.00 | 0.00 | 0.00 | 72 | 1010.6 |
| 20260505060603 | 55 | 98 | 6.0 | 10.0 | 0.00 | 0.00 | 0.00 | 71 | 1010.6 |
| 20260505060103 | 56 | 96 | 9.0 | 10.0 | 0.00 | 0.00 | 0.00 | 69 | 1010.6 |
| 20260505055603 | 56 | 90 | 7.0 | 10.0 | 0.00 | 0.00 | 0.00 | 69 | 1010.5 |
| 20260505055103 | 56 | 88 | 8.0 | 10.0 | 0.00 | 0.00 | 0.00 | 70 | 1010.5 |
| 20260505054603 | 56 | 87 | 9.0 | 10.0 | 0.00 | 0.00 | 0.00 | 70 | 1010.6 |
| 20260505054102 | 56 | 89 | 9.0 | 12.0 | 0.00 | 0.00 | 0.00 | 70 | 1010.5 |
| 20260505053604 | 57 | 89 | 10.0 | 12.0 | 0.00 | 0.00 | 0.00 | 69 | 1010.2 |
| 20260505052603 | 57 | 82 | 10.0 | 12.0 | 0.00 | 0.00 | 0.00 | 67 | 1010.2 |
| 20260505052102 | 58 | 81 | 10.0 | 12.0 | 0.00 | 0.00 | 0.00 | 67 | 1010.2 |
| 20260505051603 | 58 | 81 | 10.0 | 12.0 | 0.00 | 0.00 | 0.00 | 67 | 1010.2 |
| 20260505051103 | 58 | 78 | 10.0 | 13.0 | 0.00 | 0.00 | 0.00 | 68 | 1010.0 |
| 20260505050603 | 58 | 81 | 9.0 | 12.0 | 0.00 | 0.00 | 0.00 | 69 | 1009.7 |
| 20260505041603 | 59 | 99 | 7.0 | 10.0 | 0.00 | 0.00 | 0.00 | 66 | 1009.0 |
| 20260505041103 | 60 | 82 | 9.0 | 12.0 | 0.00 | 0.00 | 0.00 | 64 | 1008.7 |
| 20260505040603 | 60 | 75 | 8.0 | 10.0 | 0.00 | 0.00 | 0.00 | 62 | 1008.5 |
| 20260505040103 | 61 | 63 | 7.0 | 12.0 | 0.00 | 0.00 | 0.00 | 61 | 1008.4 |
| 20260505035603 | 61 | 41 | 9.0 | 12.0 | 0.00 | 0.00 | 0.00 | 60 | 1008.2 |
| 20260505035103 | 62 | 29 | 10.0 | 13.0 | 0.00 | 0.00 | 0.00 | 59 | 1008.1 |
| 20260505034602 | 63 | 25 | 7.0 | 12.0 | 0.00 | 0.00 | 0.00 | 55 | 1007.9 |
| 20260505033603 | 63 | 350 | 3.0 | 7.0 | 0.00 | 0.00 | 0.00 | 51 | 1007.8 |
| 20260505033103 | 63 | 344 | 3.0 | 5.0 | 0.00 | 0.00 | 0.00 | 52 | 1007.6 |
| 20260505032603 | 63 | 341 | 2.0 | 3.0 | 0.00 | 0.00 | 0.00 | 53 | 1007.5 |
| 20260505032103 | 63 | 293 | 2.0 | 6.0 | 0.00 | 0.00 | 0.00 | 54 | 1007.4 |
| 20260505031603 | 63 | 288 | 5.0 | 6.0 | 0.00 | 0.00 | 0.00 | 55 | 1007.4 |
| 20260505031104 | 63 | 287 | 3.0 | 5.0 | 0.00 | 0.00 | 0.00 | 56 | 1007.5 |
| 20260505030604 | 63 | 289 | 3.0 | 5.0 | 0.00 | 0.00 | 0.00 | 55 | 1007.9 |
| 20260505030103 | 63 | 322 | 2.0 | 3.0 | 0.00 | 0.00 | 0.00 | 55 | 1007.9 |
| 20260505025603 | 64 | 301 | 2.0 | 3.0 | 0.00 | 0.00 | 0.00 | 55 | 1007.8 |
| 20260505025103 | 64 | 297 | 1.0 | 3.0 | 0.00 | 0.00 | 0.00 | 56 | 1007.8 |
| 20260505024603 | 65 | 289 | 3.0 | 3.0 | 0.00 | 0.00 | 0.00 | 55 | 1007.5 |
| 20260505024103 | 65 | 333 | 2.0 | 3.0 | 0.00 | 0.00 | 0.00 | 55 | 1007.4 |
| 20260505023604 | 66 | 315 | 2.0 | 5.0 | 0.00 | 0.00 | 0.00 | 54 | 1007.4 |
| 20260505023104 | 67 | 285 | 3.0 | 5.0 | 0.00 | 0.00 | 0.00 | 53 | 1007.2 |
| 20260505021603 | 68 | 287 | 4.0 | 9.0 | 0.00 | 0.00 | 0.00 | 51 | 1007.2 |
| 20260505021102 | 68 | 286 | 5.0 | 8.0 | 0.00 | 0.00 | 0.00 | 52 | 1008.1 |
| 20260505020103 | 68 | 298 | 4.0 | 9.0 | 0.00 | 0.00 | 0.00 | 51 | 1008.2 |
| 20260505015103 | 68 | 306 | 6.0 | 12.0 | 0.00 | 0.00 | 0.00 | 51 | 1008.2 |
| 20260505014603 | 68 | 281 | 5.0 | 7.0 | 0.00 | 0.00 | 0.00 | 52 | 1008.2 |
| 20260505014103 | 68 | 301 | 5.0 | 9.0 | 0.00 | 0.00 | 0.00 | 50 | 1008.2 |
| 20260505013603 | 69 | 299 | 6.0 | 13.0 | 0.00 | 0.00 | 0.00 | 51 | 1008.2 |
| 20260505013103 | 69 | 288 | 7.0 | 14.0 | 0.00 | 0.00 | 0.00 | 50 | 1008.2 |
| 20260505012603 | 69 | 302 | 6.0 | 13.0 | 0.00 | 0.00 | 0.00 | 50 | 1008.2 |
| 20260505012103 | 70 | 293 | 10.0 | 14.0 | 0.00 | 0.00 | 0.00 | 48 | 1007.9 |
| 20260505011603 | 70 | 291 | 7.0 | 17.0 | 0.00 | 0.00 | 0.00 | 49 | 1008.0 |
| 20260505011103 | 70 | 293 | 9.0 | 15.0 | 0.00 | 0.00 | 0.00 | 49 | 1008.1 |
| 20260505005603 | 71 | 313 | 5.0 | 12.0 | 0.00 | 0.00 | 0.00 | 47 | 1008.3 |
| 20260505004103 | 70 | 297 | 7.0 | 17.0 | 0.00 | 0.00 | 0.00 | 50 | 1008.4 |
| 20260505003603 | 71 | 289 | 10.0 | 14.0 | 0.00 | 0.00 | 0.00 | 48 | 1008.4 |
| 20260505003103 | 71 | 301 | 7.0 | 13.0 | 0.00 | 0.00 | 0.00 | 48 | 1008.4 |
| 20260505002602 | 71 | 284 | 6.0 | 17.0 | 0.00 | 0.00 | 0.00 | 52 | 1008.4 |
| 20260505002103 | 71 | 284 | 9.0 | 17.0 | 0.00 | 0.00 | 0.00 | 48 | 1008.4 |
| 20260505001603 | 71 | 295 | 6.0 | 15.0 | 0.00 | 0.00 | 0.00 | 49 | 1008.4 |
| 20260505001103 | 71 | 293 | 10.0 | 17.0 | 0.00 | 0.00 | 0.00 | 49 | 1008.4 |
| 20260505000603 | 71 | 296 | 8.0 | 13.0 | 0.00 | 0.00 | 0.00 | 48 | 1008.6 |
| 20260504235603 | 72 | 313 | 5.0 | 9.0 | 0.00 | 0.00 | 0.00 | 47 | 1008.4 |
| 20260504235103 | 71 | 296 | 6.0 | 17.0 | 0.00 | 0.00 | 0.00 | 48 | 1008.7 |
| 20260504233603 | 72 | 291 | 9.0 | 14.0 | 0.00 | 0.00 | 0.00 | 47 | 1008.3 |
| 20260504233103 | 72 | 293 | 7.0 | 14.0 | 0.00 | 0.00 | 0.00 | 49 | 1008.3 |
| 20260504232103 | 72 | 293 | 9.0 | 14.0 | 0.00 | 0.00 | 0.00 | 49 | 1008.4 |
| 20260504231603 | 71 | 321 | 6.0 | 14.0 | 0.00 | 0.00 | 0.00 | 50 | 1008.7 |
| 20260504230604 | 72 | 308 | 5.0 | 12.0 | 0.00 | 0.00 | 0.00 | 51 | 1008.3 |
| 20260504225604 | 71 | 298 | 8.0 | 12.0 | 0.00 | 0.00 | 0.00 | 51 | 1008.4 |
| 20260504225103 | 71 | 293 | 5.0 | 14.0 | 0.00 | 0.00 | 0.00 | 52 | 1008.4 |
| 20260504224603 | 70 | 289 | 9.0 | 18.0 | 0.00 | 0.00 | 0.00 | 53 | 1008.7 |
| 20260504224103 | 70 | 282 | 13.0 | 17.0 | 0.00 | 0.00 | 0.00 | 51 | 1008.7 |
| 20260504223103 | 71 | 289 | 7.0 | 13.0 | 0.00 | 0.00 | 0.00 | 51 | 1008.5 |
| 20260504222603 | 71 | 300 | 7.0 | 16.0 | 0.00 | 0.00 | 0.00 | 52 | 1008.6 |
| 20260504222103 | 70 | 290 | 10.0 | 14.0 | 0.00 | 0.00 | 0.00 | 52 | 1008.9 |
| 20260504221603 | 70 | 294 | 7.0 | 13.0 | 0.00 | 0.00 | 0.00 | 52 | 1008.9 |
| 20260504221103 | 70 | 290 | 9.0 | 15.0 | 0.00 | 0.00 | 0.00 | 50 | 1009.1 |
| 20260504220603 | 69 | 288 | 7.0 | 14.0 | 0.00 | 0.00 | 0.00 | 51 | 1009.8 |
| 20260504215103 | 71 | 298 | 7.0 | 17.0 | 0.00 | 0.00 | 0.00 | 52 | 1009.7 |
| 20260504213103 | 71 | 310 | 5.0 | 9.0 | 0.00 | 0.00 | 0.00 | 50 | 1009.8 |
| 20260504212603 | 71 | 313 | 3.0 | 10.0 | 0.00 | 0.00 | 0.00 | 49 | 1009.9 |
| 20260504212102 | 70 | 296 | 9.0 | 13.0 | 0.00 | 0.00 | 0.00 | 50 | 1009.8 |
| 20260504211603 | 71 | 295 | 7.0 | 14.0 | 0.00 | 0.00 | 0.00 | 51 | 1009.8 |
| 20260504211103 | 70 | 308 | 7.0 | 13.0 | 0.00 | 0.00 | 0.00 | 51 | 1010.0 |
| 20260504210602 | 68 | 285 | 9.0 | 16.0 | 0.00 | 0.00 | 0.00 | 55 | 1010.4 |
| 20260504205603 | 71 | 289 | 10.0 | 14.0 | 0.00 | 0.00 | 0.00 | 50 | 1010.3 |
| 20260504205103 | 71 | 293 | 3.0 | 12.0 | 0.00 | 0.00 | 0.00 | 50 | 1010.3 |
| 20260504204603 | 71 | 291 | 4.0 | 10.0 | 0.00 | 0.00 | 0.00 | 50 | 1010.4 |
| 20260504204104 | 70 | 326 | 5.0 | 10.0 | 0.00 | 0.00 | 0.00 | 51 | 1010.4 |
| 20260504203603 | 70 | 309 | 6.0 | 15.0 | 0.00 | 0.00 | 0.00 | 53 | 1010.3 |
| 20260504203104 | 70 | 310 | 6.0 | 10.0 | 0.00 | 0.00 | 0.00 | 51 | 1010.4 |
| 20260504202603 | 69 | 311 | 5.0 | 20.0 | 0.00 | 0.00 | 0.00 | 52 | 1010.6 |
| 20260504201603 | 71 | 298 | 5.0 | 10.0 | 0.00 | 0.00 | 0.00 | 50 | 1010.5 |
| 20260504201104 | 70 | 296 | 5.0 | 9.0 | 0.00 | 0.00 | 0.00 | 52 | 1010.3 |
| 20260504195603 | 69 | 357 | 5.0 | 12.0 | 0.00 | 0.00 | 0.00 | 51 | 1010.4 |
| 20260504195103 | 68 | 283 | 8.0 | 13.0 | 0.00 | 0.00 | 0.00 | 52 | 1010.4 |
| 20260504194603 | 67 | 279 | 10.0 | 16.0 | 0.00 | 0.00 | 0.00 | 55 | 1010.7 |
| 20260504194104 | 67 | 280 | 11.0 | 16.0 | 0.00 | 0.00 | 0.00 | 50 | 1010.8 |
| 20260504193603 | 67 | 290 | 12.0 | 16.0 | 0.00 | 0.00 | 0.00 | 50 | 1010.8 |
| 20260504193103 | 68 | 285 | 10.0 | 16.0 | 0.00 | 0.00 | 0.00 | 50 | 1010.6 |
| 20260504192103 | 67 | 284 | 9.0 | 16.0 | 0.00 | 0.00 | 0.00 | 50 | 1010.6 |
| 20260504191602 | 67 | 283 | 14.0 | 16.0 | 0.00 | 0.00 | 0.00 | 51 | 1010.7 |
| 20260504191103 | 66 | 288 | 10.0 | 16.0 | 0.00 | 0.00 | 0.00 | 50 | 1010.9 |
| 20260504190603 | 66 | 280 | 12.0 | 17.0 | 0.00 | 0.00 | 0.00 | 50 | 1011.1 |
| 20260504185603 | 66 | 268 | 13.0 | 17.0 | 0.00 | 0.00 | 0.00 | 49 | 1011.0 |
| 20260504185103 | 66 | 277 | 11.0 | 16.0 | 0.00 | 0.00 | 0.00 | 49 | 1011.1 |
| 20260504184603 | 66 | 271 | 11.0 | 15.0 | 0.00 | 0.00 | 0.00 | 49 | 1011.2 |
| 20260504184103 | 67 | 277 | 10.0 | 14.0 | 0.00 | 0.00 | 0.00 | 48 | 1011.2 |
| 20260504183603 | 67 | 286 | 7.0 | 14.0 | 0.00 | 0.00 | 0.00 | 47 | 1011.2 |
| 20260504183103 | 67 | 290 | 6.0 | 10.0 | 0.00 | 0.00 | 0.00 | 47 | 1011.2 |
| 20260504182603 | 67 | 288 | 7.0 | 12.0 | 0.00 | 0.00 | 0.00 | 47 | 1011.2 |
| 20260504182103 | 66 | 292 | 5.0 | 12.0 | 0.00 | 0.00 | 0.00 | 50 | 1011.3 |
| 20260504181103 | 65 | 279 | 12.0 | 17.0 | 0.00 | 0.00 | 0.00 | 46 | 1011.4 |
| 20260504180603 | 65 | 282 | 11.0 | 17.0 | 0.00 | 0.00 | 0.00 | 47 | 1011.1 |
| 20260504180103 | 65 | 260 | 12.0 | 14.0 | 0.00 | 0.00 | 0.00 | 48 | 1011.1 |
| 20260504175604 | 65 | 277 | 10.0 | 13.0 | 0.00 | 0.00 | 0.00 | 49 | 1011.2 |
| 20260504175103 | 65 | 264 | 12.0 | 17.0 | 0.00 | 0.00 | 0.00 | 46 | 1011.3 |
| 20260504174602 | 65 | 269 | 10.0 | 14.0 | 0.00 | 0.00 | 0.00 | 46 | 1011.0 |
| 20260504174103 | 66 | 292 | 5.0 | 12.0 | 0.00 | 0.00 | 0.00 | 48 | 1010.9 |
| 20260504173603 | 65 | 286 | 9.0 | 15.0 | 0.00 | 0.00 | 0.00 | 47 | 1011.2 |
| 20260504173103 | 66 | 285 | 7.0 | 14.0 | 0.00 | 0.00 | 0.00 | 47 | 1011.0 |
| 20260504172603 | 67 | 263 | 3.0 | 13.0 | 0.00 | 0.00 | 0.00 | 47 | 1010.9 |
| 20260504172103 | 68 | 269 | 3.0 | 13.0 | 0.00 | 0.00 | 0.00 | 49 | 1010.8 |
| 20260504171603 | 68 | 275 | 7.0 | 10.0 | 0.00 | 0.00 | 0.00 | 41 | 1010.8 |
| 20260504171103 | 69 | 341 | 3.0 | 6.0 | 0.00 | 0.00 | 0.00 | 46 | 1010.7 |
| 20260504170603 | 69 | 336 | 3.0 | 7.0 | 0.00 | 0.00 | 0.00 | 46 | 1010.5 |
| 20260504150603 | 65 | 185 | 0.0 | 0.0 | 0.00 | 0.00 | 0.00 | 51 | 1009.3 |
| 20260504141103 | 54 | 185 | 0.0 | 0.0 | 0.00 | 0.00 | 0.00 | 77 | 1010.0 |
| 20260504140602 | 54 | 185 | 0.0 | 0.0 | 0.00 | 0.00 | 0.00 | 76 | 1009.9 |
| 20260504140103 | 53 | 185 | 0.0 | 2.0 | 0.00 | 0.00 | 0.00 | 75 | 1010.1 |
| 20260504130603 | 52 | 185 | 0.0 | 2.0 | 0.00 | 0.00 | 0.00 | 60 | 1009.8 |
| 20260504120103 | 50 | 232 | 0.0 | 0.0 | 0.00 | 0.00 | 0.00 | 65 | 1010.3 |
| 20260504110603 | 52 | 232 | 0.0 | 0.0 | 0.00 | 0.00 | 0.00 | 63 | 1010.1 |
| 20260504100104 | 48 | 232 | 2.0 | 3.0 | 0.00 | 0.00 | 0.00 | 73 | 1010.3 |